Weather History for 76665 - November, 2013

Change the Weather History Date:

Friday, November 8, 2013

  Actual Average Record
Temperature  
Mean Temperature 64 °F -  
Max Temperature 77 °F 74 °F - ()
Min Temperature 50 °F 46 °F - ()
Degree Days  
Heating Degree Days 2    
Growing Degree Days 14 (Base 50)    
Moisture  
Dew Point 53 °F    
Average Humidity 77    
Maximum Humidity 100    
Minimum Humidity 44    
Precipitation  
Precipitation 0.00 in 0.02 in - ()
Sea Level Pressure  
Sea Level Pressure 30.08 in    
Wind  
Wind Speed 1 mph ()    
Max Wind Speed 7 mph    
Max Gust Speed -    
Visibility 6.9 miles    
Events      
T = Trace of Precipitation, MM = Missing Value Source: Averaged Metar Reports

Daily Weather History Graph

Daily Weather History Graph

Search for Another Location

Airport or City:

Trip Planner

Search our weather history database for the weather conditions in past years. The results will help you decide how hot, cold, wet, or windy it might be!

Date:

Astronomy

Nov. 08, 2013 Rise Set
Actual Time 6:48 AM CST 6:06 PM CST
Civil Twilight 6:26 AM CST 6:29 PM CST
Nautical Twilight 5:59 AM CST 6:55 PM CST
Astronomical Twilight 5:33 AM CST 7:21 PM CST
Moon 11:46 AM CST (11/8) 11:26 PM CST (11/8)
Length of Visible Light 12h 03m
Length of Day
11h 17m
Waxing Crescent, 33% of the Moon is Illuminated
Nov 8
Waxing Crescent
Nov 9
First Quarter
Nov 17
Full
Nov 25
Last Quarter
Dec 2
New

Hourly Weather History & Observations

Time (CST) Temp. Dew Point Humidity Pressure Visibility Wind Dir Wind Speed Gust Speed Precip Events Conditions
12:43 AM 55.4 °F 53.6 °F 94% 30.30 in 6.0 mi Calm Calm - N/A   Scattered Clouds
1:45 AM 51.8 °F 50.0 °F 94% 30.29 in 6.0 mi Calm Calm - N/A   Scattered Clouds
2:45 AM 51.8 °F 51.8 °F 100% 29.94 in 6.0 mi Calm Calm - N/A   Scattered Clouds
2:50 AM 58 °F 53 °F 77% 29.94 in 5 mi North 2.2 mph - -   Partly Cloudy
3:46 AM 51.8 °F 51.8 °F 100% 30.27 in 6.0 mi Calm Calm - N/A   Scattered Clouds
4:45 AM 50.0 °F 50.0 °F 100% 30.27 in 6.0 mi Calm Calm - N/A   Clear
5:47 AM 48.2 °F 48.2 °F 100% 29.96 in 6.0 mi Calm Calm - N/A   Clear
5:50 AM 56 °F 53 °F 86% 29.99 in 5 mi North 2.2 mph - -   Partly Cloudy
6:45 AM 48.2 °F 46.4 °F 93% 30.28 in 10.0 mi Calm Calm - N/A   Partly Cloudy
7:41 AM 50.0 °F 50.0 °F 100% 30.31 in 8.0 mi Calm Calm - N/A   Scattered Clouds
8:49 AM 57.2 °F 53.6 °F 88% 29.98 in 8.0 mi Calm Calm - N/A   Scattered Clouds
9:00 AM 58 °F 49 °F 64% 30.04 in 6 mi NNE 4.5 mph - -  
9:43 AM 62.6 °F 53.6 °F 72% 30.33 in 8.0 mi Calm Calm - N/A   Scattered Clouds
10:49 AM 66.2 °F 53.6 °F 64% 30.32 in 8.0 mi NNW 4.6 mph - N/A   Scattered Clouds
11:47 AM 66.2 °F 51.8 °F 60% 29.92 in 8.0 mi South 3.5 mph - N/A   Scattered Clouds
11:55 AM 72 °F 55 °F 44% 29.98 in 7 mi ENE 6.7 mph - -   Partly Cloudy
12:45 PM 71.6 °F 53.6 °F 53% 30.25 in 8.0 mi WNW 4.6 mph - N/A   Scattered Clouds
1:46 PM 71.6 °F 51.8 °F 50% 30.21 in 8.0 mi Calm Calm - N/A   Scattered Clouds
2:42 PM 75.2 °F 53.6 °F 47% 29.78 in 8.0 mi West 5.8 mph - N/A   Scattered Clouds
2:55 PM 74 °F 58 °F 49% 29.86 in 7 mi SSW 2.2 mph - -   Partly Cloudy
3:41 PM 75.2 °F 51.8 °F 44% 30.17 in 8.0 mi Calm Calm - N/A   Mostly Cloudy
4:50 PM 75.2 °F 51.8 °F 44% 30.17 in 8.0 mi South 5.8 mph - N/A   Mostly Cloudy
5:45 PM 70 °F 63 °F 73% 29.78 in 6 mi SSE 2.2 mph - -   Partly Cloudy
5:48 PM 68.0 °F 53.6 °F 60% 29.83 in 8.0 mi SSE 3.5 mph - N/A   Scattered Clouds
6:40 PM 64.4 °F 51.8 °F 64% 30.19 in 7.0 mi Calm Calm - N/A   Mostly Cloudy
7:47 PM 59.0 °F 53.6 °F 82% 30.22 in 7.0 mi Calm Calm - N/A   Scattered Clouds
8:42 PM 57.2 °F 53.6 °F 88% 29.88 in 7.0 mi Calm Calm - N/A   Scattered Clouds
8:50 PM 62 °F 58 °F 81% 29.82 in 5 mi NNW 2.2 mph - -   Partly Cloudy
9:45 PM 53.6 °F 51.8 °F 94% 30.24 in 7.0 mi Calm Calm - N/A   Clear
10:45 PM 50.0 °F 50.0 °F 100% 30.25 in 7.0 mi Calm Calm - N/A   Clear
11:45 PM 50.0 °F 50.0 °F 100% 29.94 in 7.0 mi Calm Calm - N/A   Clear
11:50 PM 57 °F 55 °F 89% 29.86 in 5 mi West 2.2 mph - -